Location: Hopkins Observatory
(42.6965°N, 73.1843°W)
Time: 03:51:25
(UTC-04:00)

Amateur Radio Satellites - All Passes

Search period start: 02 April 2015 03:21
Search period end: 03 April 2015 03:21
Location: Hopkins Observatory, 42.6965°N, 73.1843°W

Satellite Date Start Highest point End Downlink Frequencies (MHz)
Time Altitude Azimuth
SO-50 02 Apr 03:26:03 03:30:57 60° 241° (WSW) 03:35:47 436.795
Oscar 19 02 Apr 03:31:27 03:35:56 30° 293° (WNW) 03:40:21 437.125/150
STARS 02 Apr 03:39:09 03:43:18 41° 262° (W) 03:47:28 437.465
MOZHAYETS 4 02 Apr 03:43:59 03:47:23 21° 66° (ENE) 03:50:55
HORYU 2 02 Apr 03:44:43 03:48:21 24° 94° (E) 03:52:04 437.375
AIST 1 02 Apr 04:08:17 04:12:41 87° 278° (W) 04:17:06
VERMONT LUNAR 02 Apr 04:08:33 04:11:20 25° 158° (SSE) 04:14:09 437.305
Gurwin Techsat 1B 02 Apr 04:18:09 04:23:09 41° 291° (WNW) 04:28:04 435.225
AUBIESAT-1 02 Apr 04:28:42 04:32:15 27° 61° (ENE) 04:36:05 437.475
ISS 02 Apr 04:30:30 04:33:33 39° 221° (SW) 04:36:34 145.825
AO-7 02 Apr 04:34:41 04:42:33 46° 99° (E) 04:50:29 29.400- 29.500
O/OREOS (USA 219) 02 Apr 04:42:49 04:46:51 28° 303° (WNW) 04:50:50 437.305
ITAMSAT 1 02 Apr 04:46:21 04:50:07 20° 297° (WNW) 04:53:44 435.822/435.867
JAS-2 02 Apr 04:49:19 04:56:52 57° 98° (E) 05:03:44 435.910
M-CUBED/EXP-1 PRIME 02 Apr 04:56:00 05:00:05 56° 68° (ENE) 05:04:31 437.505
GONETS M04 02 Apr 05:07:55 05:15:01 27° 64° (ENE) 05:22:23
RS-15 02 Apr 05:08:15 05:19:06 47° 248° (WSW) 05:30:12 29.354- 29.394
MOZHAYETS 4 02 Apr 05:19:57 05:24:22 43° 262° (W) 05:28:48
HORYU 2 02 Apr 05:21:00 05:25:06 34° 290° (WNW) 05:29:08 437.375
PHONESAT 2.4 02 Apr 05:22:21 05:25:33 33° 161° (SSE) 05:28:47 2401.200-2431.200
CUBESAT XI-V 02 Apr 05:41:46 05:45:42 28° 68° (ENE) 05:49:42 437.345
VERMONT LUNAR 02 Apr 05:45:25 05:48:42 55° 174° (S) 05:51:59 437.305
CUTE-I 02 Apr 05:58:18 06:00:58 14° 88° (E) 06:03:54 437.470
Cubesat XI-IV 02 Apr 05:59:35 06:02:26 15° 88° (E) 06:05:32 437.490
AUBIESAT-1 02 Apr 06:03:13 06:06:58 31° 260° (W) 06:10:57 437.475
PRISM 02 Apr 06:23:10 06:27:18 57° 73° (ENE) 06:31:28 437.425
DANDE 02 Apr 06:23:18 06:25:02 12° 70° (ENE) 06:27:13 436.750
AO-7 02 Apr 06:27:39 06:35:21 43° 299° (WNW) 06:42:57 29.400- 29.500
STRAND 1 02 Apr 06:28:07 06:33:01 46° 71° (ENE) 06:37:57 437.568
M-CUBED/EXP-1 PRIME 02 Apr 06:33:04 06:35:29 14° 267° (W) 06:37:48 437.505
JAS-2 02 Apr 06:34:50 06:41:30 32° 298° (WNW) 06:47:34 435.910
CUSAT 1 02 Apr 06:49:27 06:53:34 31° 75° (ENE) 06:58:52 437.405
PHONESAT 2.4 02 Apr 07:00:10 07:03:38 61° 178° (S) 07:07:08 2401.200-2431.200
GONETS M04 02 Apr 07:04:00 07:12:48 70° 266° (W) 07:21:32
CUBESAT XI-V 02 Apr 07:18:50 07:23:05 32° 265° (W) 07:27:17 437.345
VERMONT LUNAR 02 Apr 07:22:58 07:26:12 49° 191° (S) 07:29:27 437.305
CUTE-I 02 Apr 07:36:24 07:41:43 74° 287° (WNW) 07:47:01 437.470
Cubesat XI-IV 02 Apr 07:37:51 07:43:11 71° 287° (WNW) 07:48:28 437.490
PRISM 02 Apr 08:01:12 08:03:13 13° 271° (W) 08:05:01 437.425
DANDE 02 Apr 08:04:04 08:08:27 73° 260° (W) 08:14:22 436.750
STRAND 1 02 Apr 08:08:27 08:12:29 22° 268° (W) 08:16:24 437.568
AO-7 02 Apr 08:24:53 08:26:07 10° 320° (NW) 08:26:54 29.400- 29.500
CUSAT 1 02 Apr 08:32:03 08:36:20 32° 264° (W) 08:41:43 437.405
PHONESAT 2.4 02 Apr 08:38:26 08:41:47 42° 195° (SSW) 08:45:09 2401.200-2431.200
CANX-2 02 Apr 08:51:02 08:54:24 22° 93° (E) 08:57:51 2200.000
BEESAT 3 02 Apr 08:51:57 08:55:16 25° 114° (ESE) 08:58:41 437.485
DOVE 4 02 Apr 08:52:31 08:55:32 18° 92° (E) 08:58:49 437.250
BRITE-PL 02 Apr 08:57:45 09:01:51 44° 99° (E) 09:06:10 437.365/2234.400
VERMONT LUNAR 02 Apr 09:01:04 09:03:29 18° 206° (SSW) 09:05:53 437.305
CUTE 1.7 + AOD 2 02 Apr 09:04:04 09:07:47 28° 94° (E) 09:11:31 437.475
GONETS M04 02 Apr 09:04:17 09:08:11 13° 285° (WNW) 09:11:25
AAUSAT CUBESAT 2 02 Apr 09:12:45 09:15:53 20° 92° (E) 09:19:07 437.432
CUTE-I 02 Apr 09:19:32 09:21:00 11° 303° (WNW) 09:22:09 437.470
Cubesat XI-IV 02 Apr 09:21:19 09:22:27 10° 303° (WNW) 09:23:15 437.490
GOMX 1 02 Apr 09:22:55 09:27:11 55° 100° (E) 09:31:43 467.674
CUBEBUG 2 02 Apr 09:23:49 09:24:49 11° 87° (E) 09:26:07 437.445
ANTELSAT 02 Apr 09:25:33 09:27:51 15° 63° (ENE) 09:30:20 437.575/2403.000
SEEDS 02 Apr 09:26:46 09:30:50 41° 98° (E) 09:34:54 437.485
HO-68 02 Apr 09:34:34 09:41:42 62° 102° (ESE) 09:48:49 435.675
CINEMA 3 02 Apr 09:37:40 09:41:33 29° 95° (E) 09:45:39 145.822/145.860
COMPASS 1 02 Apr 09:42:40 09:46:49 50° 99° (E) 09:50:57 437.405
AIST 2 02 Apr 09:56:03 09:59:54 34° 116° (ESE) 10:03:50 435.215
BEESAT 2 02 Apr 09:56:57 10:01:04 81° 303° (WNW) 10:05:16 435.950
DX 1 02 Apr 09:59:20 10:00:41 11° 88° (E) 10:02:16 434.975-435.025
DELFI C3 02 Apr 10:01:11 10:04:32 25° 94° (E) 10:07:57 145.870
DUCHIFAT 1 02 Apr 10:06:35 10:09:31 19° 67° (ENE) 10:12:35 145.980
QB50P1 02 Apr 10:07:11 10:10:13 20° 67° (ENE) 10:13:21 145.935-145.965
Oscar 11 02 Apr 10:09:10 10:13:18 40° 98° (E) 10:17:25 145.826/435.025
PHONESAT 2.4 02 Apr 10:17:34 10:19:38 15° 209° (SSW) 10:21:38 2401.200-2431.200
UNISAT 6 02 Apr 10:19:15 10:23:24 51° 72° (ENE) 10:27:39 437.425
QB50P2 02 Apr 10:22:51 10:26:30 29° 69° (ENE) 10:30:12 145.880/145.840
CANX-2 02 Apr 10:26:31 10:30:26 33° 290° (WNW) 10:34:17 2200.000
BUGSAT 1 02 Apr 10:27:22 10:30:35 23° 68° (ENE) 10:33:52 437.445
TIGRISAT 02 Apr 10:27:23 10:31:35 61° 74° (ENE) 10:35:54 435.000
FUNcube-1 02 Apr 10:28:10 10:32:12 34° 96° (E) 10:36:21 145.935
DOVE 4 02 Apr 10:29:21 10:33:33 44° 287° (WNW) 10:37:56 437.250
BEESAT 3 02 Apr 10:29:25 10:33:12 34° 312° (NW) 10:37:00 437.485
BRITE-PL 02 Apr 10:37:19 10:40:10 17° 293° (WNW) 10:42:59 437.365/2234.400
CUTE 1.7 + AOD 2 02 Apr 10:39:59 10:43:40 27° 291° (WNW) 10:47:15 437.475
ZACube-1 02 Apr 10:42:33 10:46:52 50° 99° (E) 10:51:17 437.345
UWE-3 02 Apr 10:43:32 10:47:59 64° 101° (E) 10:52:32 435.000/436.395/437.385
AAUSAT CUBESAT 2 02 Apr 10:47:47 10:51:39 35° 289° (WNW) 10:55:29 437.432
POPSAT HIP 1 02 Apr 10:50:05 10:54:12 57° 74° (ENE) 10:58:20 437.405
VELOX 1 02 Apr 10:54:59 10:58:16 21° 93° (E) 11:01:40 145.980
50 SAT 02 Apr 10:56:39 10:59:49 22° 94° (E) 11:03:03 437.505
CUBEBUG 2 02 Apr 10:57:37 11:02:06 76° 284° (WNW) 11:06:41 437.445
NANOSAT C BR1 02 Apr 10:58:46 11:02:57 72° 76° (ENE) 11:07:09 145.865
HUMSAT D 02 Apr 10:59:32 11:03:32 37° 97° (E) 11:07:34 437.325/437.525
ANTELSAT 02 Apr 11:00:00 11:04:13 57° 260° (W) 11:08:31 437.575/2403.000
AISAT 02 Apr 11:01:20 11:04:57 25° 94° (E) 11:08:39 437.250
GOMX 1 02 Apr 11:02:26 11:05:02 15° 294° (WNW) 11:07:32 467.674
SEEDS 02 Apr 11:03:19 11:06:24 19° 293° (WNW) 11:09:20 437.485
POLYITAN 1 02 Apr 11:06:58 11:11:11 90° 138° (SE) 11:15:25 437.675
CINEMA 3 02 Apr 11:14:52 11:18:45 29° 290° (WNW) 11:22:44 145.822/145.860
UKube-1 02 Apr 11:17:04 11:21:25 79° 103° (ESE) 11:25:44 .
COMPASS 1 02 Apr 11:19:32 11:22:09 16° 295° (WNW) 11:24:37 437.405
HO-68 02 Apr 11:23:01 11:29:01 29° 300° (WNW) 11:34:52 435.675
DX 1 02 Apr 11:33:10 11:37:28 66° 286° (WNW) 11:41:45 434.975-435.025
AIST 2 02 Apr 11:34:50 11:38:33 28° 314° (NW) 11:42:16 435.215
DELFI C3 02 Apr 11:36:11 11:39:43 27° 290° (WNW) 11:43:10 145.870
BEESAT 2 02 Apr 11:37:58 11:39:57 13° 324° (NW) 11:41:49 435.950
DUCHIFAT 1 02 Apr 11:41:12 11:45:08 38° 262° (W) 11:49:04 145.980
QB50P1 02 Apr 11:41:57 11:45:53 37° 263° (W) 11:49:48 145.935-145.965
ESTCUBE 1 02 Apr 11:45:05 11:49:18 38° 97° (E) 11:53:30 437.505/2401.250
Oscar 11 02 Apr 11:46:00 11:49:14 20° 294° (WNW) 11:52:21 145.826/435.025
UNISAT 6 02 Apr 11:58:07 12:00:36 15° 271° (W) 12:02:55 437.425
YUBILEINY 02 Apr 11:58:35 12:03:41 18° 78° (ENE) 12:09:19 435.215
QB50P2 02 Apr 11:58:56 12:02:26 24° 266° (W) 12:05:52 145.880/145.840
BUGSAT 1 02 Apr 12:02:17 12:05:58 30° 264° (W) 12:09:35 437.445
FUNcube-1 02 Apr 12:04:50 12:08:25 24° 292° (WNW) 12:11:56 145.935
TIGRISAT 02 Apr 12:07:05 12:08:53 12° 272° (W) 12:10:29 435.000
SPROUT 02 Apr 12:10:54 12:13:38 17° 91° (E) 12:16:30 437.525
CUBEBUG 1 02 Apr 12:17:48 12:22:08 77° 102° (ESE) 12:26:27 437.445
ZACube-1 02 Apr 12:19:58 12:22:55 17° 294° (WNW) 12:25:46 437.345
UWE-3 02 Apr 12:21:39 12:24:06 14° 296° (WNW) 12:26:23 435.000/436.395/437.385
POPSAT HIP 1 02 Apr 12:28:35 12:30:32 13° 271° (W) 12:32:17 437.405
VELOX 1 02 Apr 12:30:55 12:35:01 37° 290° (WNW) 12:39:02 145.980
50 SAT 02 Apr 12:31:11 12:34:46 30° 290° (WNW) 12:38:18 437.505
HUMSAT D 02 Apr 12:35:52 12:39:06 21° 293° (WNW) 12:42:14 437.325/437.525
AISAT 02 Apr 12:37:41 12:41:36 31° 291° (WNW) 12:45:27 437.250
ITAMSAT 1 02 Apr 12:48:42 12:50:56 13° 59° (ENE) 12:53:25 435.822/435.867
UKube-1 02 Apr 12:55:38 12:57:00 11° 299° (WNW) 12:58:10 .
PCSat 02 Apr 12:57:53 13:01:15 18° 106° (ESE) 13:04:51 145.827
Oscar 19 02 Apr 13:09:27 13:14:26 56° 72° (ENE) 13:19:28 437.125/150
O/OREOS (USA 219) 02 Apr 13:12:06 13:16:39 68° 65° (ENE) 13:21:08 437.305
TISAT 1 02 Apr 13:19:01 13:23:15 79° 104° (ESE) 13:27:26 437.305
ESTCUBE 1 02 Apr 13:22:27 13:25:59 22° 294° (WNW) 13:29:24 437.505/2401.250
SPROUT 02 Apr 13:45:54 13:49:59 43° 288° (WNW) 13:54:03 437.525
ITUPSAT 1 02 Apr 13:46:25 13:50:14 24° 93° (E) 13:54:07 437.325
AO-7 02 Apr 13:46:27 13:50:56 17° 47° (NE) 13:55:48 29.400- 29.500
YUBILEINY 02 Apr 13:50:33 13:59:23 87° 95° (E) 14:08:18 435.215
CUBEBUG 1 02 Apr 13:56:31 13:57:58 11° 298° (WNW) 13:59:12 437.445
Gurwin Techsat 1B 02 Apr 14:00:15 14:05:16 45° 70° (ENE) 14:10:20 435.225
AIST 1 02 Apr 14:15:19 14:18:49 24° 72° (ENE) 14:22:20
ITAMSAT 1 02 Apr 14:24:32 14:29:47 90° 252° (WSW) 14:35:02 435.822/435.867
SWISSCUBE 02 Apr 14:31:34 14:36:23 75° 104° (ESE) 14:41:09 437.505
BEESAT 02 Apr 14:33:43 14:38:32 73° 103° (ESE) 14:43:18 436.000
PCSat 02 Apr 14:38:47 14:44:10 68° 302° (WNW) 14:49:37 145.827
HORYU 2 02 Apr 14:44:01 14:47:37 25° 67° (ENE) 14:51:19 437.375
Oscar 19 02 Apr 14:50:41 14:54:14 18° 270° (W) 14:57:37 437.125/150
O/OREOS (USA 219) 02 Apr 14:53:44 14:55:32 12° 261° (W) 14:57:05 437.305
TISAT 1 02 Apr 14:57:36 14:58:30 10° 298° (WNW) 14:59:10 437.305
JAS-2 02 Apr 15:01:36 15:07:40 31° 61° (ENE) 15:14:16 435.910
KKS-1 02 Apr 15:06:51 15:10:45 30° 96° (E) 15:14:43 437.445
ITUPSAT 1 02 Apr 15:23:49 15:28:16 38° 291° (WNW) 15:32:39 437.325
STARS 02 Apr 15:28:09 15:32:06 32° 96° (E) 15:36:06 437.465
AO-7 02 Apr 15:34:13 15:42:23 66° 67° (ENE) 15:50:36 29.400- 29.500
Gurwin Techsat 1B 02 Apr 15:41:10 15:45:29 24° 268° (W) 15:49:42 435.225
YUBILEINY 02 Apr 15:51:06 15:57:38 21° 300° (WNW) 16:03:48 435.215
AIST 1 02 Apr 15:52:47 15:56:30 28° 270° (W) 16:00:07
ITAMSAT 1 02 Apr 16:08:39 16:10:08 11° 274° (W) 16:11:16 435.822/435.867
SWISSCUBE 02 Apr 16:11:13 16:13:42 14° 299° (WNW) 16:15:58 437.505
BEESAT 02 Apr 16:13:16 16:15:51 14° 298° (WNW) 16:18:14 436.000
HORYU 2 02 Apr 16:20:10 16:24:10 32° 264° (W) 16:28:10 437.375
PCSat 02 Apr 16:25:45 16:28:43 14° 324° (NW) 16:31:32 145.827
BEESAT 2 02 Apr 16:39:24 16:41:05 12° 35° (NE) 16:42:54 435.950
KKS-1 02 Apr 16:43:34 16:47:20 27° 292° (WNW) 16:51:02 437.445
JAS-2 02 Apr 16:45:10 16:52:12 62° 261° (W) 16:59:54 435.910
STARS 02 Apr 17:04:50 17:08:28 25° 292° (WNW) 17:12:00 437.465
BEESAT 3 02 Apr 17:09:55 17:13:12 23° 44° (NE) 17:16:30 437.485
MOZHAYETS 4 02 Apr 17:14:13 17:18:38 42° 98° (E) 17:23:02
CUTE-I 02 Apr 17:20:16 17:24:39 27° 65° (ENE) 17:29:08 437.470
Cubesat XI-IV 02 Apr 17:21:46 17:26:14 28° 66° (ENE) 17:30:48 437.490
RS-15 02 Apr 17:22:32 17:31:02 29° 105° (ESE) 17:40:02 29.354- 29.394
AO-7 02 Apr 17:28:51 17:35:51 28° 267° (W) 17:42:37 29.400- 29.500
SO-50 02 Apr 17:41:17 17:45:32 38° 116° (ESE) 17:49:58 436.795
AUBIESAT-1 02 Apr 17:43:58 17:47:29 21° 96° (E) 17:51:02 437.475
GONETS M04 02 Apr 18:10:54 18:17:50 29° 83° (E) 18:25:05
M-CUBED/EXP-1 PRIME 02 Apr 18:11:44 18:16:22 43° 102° (ESE) 18:20:50 437.505
BEESAT 2 02 Apr 18:15:50 18:20:00 78° 56° (NE) 18:24:05 435.950
AIST 2 02 Apr 18:17:02 18:20:51 31° 47° (NE) 18:24:38 435.215
HO-68 02 Apr 18:23:36 18:24:17 10° 47° (NE) 18:25:24 435.675
JAS-2 02 Apr 18:37:59 18:39:10 10° 283° (WNW) 18:39:41 435.910
STRAND 1 02 Apr 18:39:27 18:42:01 14° 88° (E) 18:44:51 437.568
BEESAT 3 02 Apr 18:47:33 18:51:26 41° 243° (WSW) 18:55:14 437.485
MOZHAYETS 4 02 Apr 18:52:05 18:55:37 21° 294° (WNW) 18:59:03
CUTE-I 02 Apr 18:59:30 19:04:34 42° 262° (W) 19:09:38 437.470
Cubesat XI-IV 02 Apr 19:01:09 19:06:12 40° 263° (W) 19:11:14 437.490
CUBESAT XI-V 02 Apr 19:14:15 19:18:51 59° 100° (E) 19:23:23 437.345
AUBIESAT-1 02 Apr 19:17:55 19:22:34 47° 294° (WNW) 19:27:01 437.475
SO-50 02 Apr 19:22:00 19:26:10 30° 315° (NW) 19:30:26 436.795
RS-15 02 Apr 19:31:29 19:42:24 78° 306° (NW) 19:53:36 29.354- 29.394
PRISM 02 Apr 19:40:21 19:44:33 86° 107° (ESE) 19:48:41 437.425
CANX-2 02 Apr 19:45:23 19:48:18 19° 66° (ENE) 19:51:21 2200.000
M-CUBED/EXP-1 PRIME 02 Apr 19:47:03 19:50:59 24° 299° (WNW) 19:54:44 437.505
AIST 2 02 Apr 19:55:42 19:59:24 29° 245° (WSW) 20:03:00 435.215
BEESAT 2 02 Apr 19:57:02 19:57:35 10° 251° (WSW) 19:57:53 435.950
CUTE 1.7 + AOD 2 02 Apr 19:58:09 20:01:27 23° 68° (ENE) 20:04:51 437.475
DOVE 4 02 Apr 19:59:49 20:02:45 19° 67° (ENE) 20:05:46 437.250
CUSAT 1 02 Apr 20:02:43 20:04:21 15° 93° (E) 20:06:03 437.405
HO-68 02 Apr 20:03:41 20:10:29 50° 67° (ENE) 20:17:24 435.675
AAUSAT CUBESAT 2 02 Apr 20:05:12 20:07:47 17° 66° (ENE) 20:10:31 437.432
GONETS M04 02 Apr 20:05:31 20:14:09 63° 283° (WNW) 20:22:50
BRITE-PL 02 Apr 20:09:38 20:14:04 57° 75° (ENE) 20:18:17 437.365/2234.400
STRAND 1 02 Apr 20:16:45 20:21:50 70° 287° (WNW) 20:26:54 437.568
SEEDS 02 Apr 20:19:47 20:23:32 32° 70° (ENE) 20:27:21 437.485
GOMX 1 02 Apr 20:32:14 20:36:33 64° 75° (ENE) 20:40:43 467.674
COMPASS 1 02 Apr 20:34:46 20:38:39 38° 71° (ENE) 20:42:36 437.405
CINEMA 3 02 Apr 20:40:59 20:44:26 26° 69° (ENE) 20:47:58 145.822/145.860
DELFI C3 02 Apr 20:50:22 20:53:07 18° 67° (ENE) 20:56:00 145.870
CUBESAT XI-V 02 Apr 20:53:02 20:55:51 16° 296° (WNW) 20:58:30 437.345
DX 1 02 Apr 20:56:03 20:57:52 13° 62° (ENE) 20:59:51 434.975-435.025
Oscar 11 02 Apr 21:04:46 21:08:40 34° 70° (ENE) 21:12:38 145.826/435.025
ISS 02 Apr 21:09:38 21:12:41 37° 139° (SE) 21:15:45 145.825
CANX-2 02 Apr 21:19:57 21:23:58 41° 262° (W) 21:28:02 2200.000
DANDE 02 Apr 21:20:44 21:23:19 34° 283° (WNW) 21:25:45 436.750
FUNcube-1 02 Apr 21:25:15 21:28:47 28° 69° (ENE) 21:32:25 145.935
CUTE 1.7 + AOD 2 02 Apr 21:33:24 21:37:14 32° 264° (W) 21:41:05 437.475
DOVE 4 02 Apr 21:36:24 21:40:22 37° 263° (W) 21:44:14 437.250
AAUSAT CUBESAT 2 02 Apr 21:39:04 21:43:05 46° 261° (W) 21:47:10 437.432
ZACube-1 02 Apr 21:39:38 21:43:31 41° 72° (ENE) 21:47:29 437.345
UWE-3 02 Apr 21:41:45 21:45:47 54° 74° (ENE) 21:49:53 435.000/436.395/437.385
PCSat 02 Apr 21:43:22 21:47:22 21° 42° (NE) 21:51:29 145.827
50 SAT 02 Apr 21:44:26 21:46:41 15° 66° (ENE) 21:49:06 437.505
CUSAT 1 02 Apr 21:46:32 21:47:10 10° 292° (WNW) 21:47:41 437.405
RS-15 02 Apr 21:47:34 21:56:59 30° 335° (NNW) 22:06:31 29.354- 29.394
BRITE-PL 02 Apr 21:50:47 21:53:01 13° 270° (W) 21:54:59 437.365/2234.400
HO-68 02 Apr 21:52:04 21:58:29 33° 265° (W) 22:04:48 435.675
HUMSAT D 02 Apr 21:52:34 21:56:06 29° 70° (ENE) 21:59:43 437.325/437.525
VELOX 1 02 Apr 21:53:41 21:57:02 22° 66° (ENE) 22:00:29 145.980
SEEDS 02 Apr 21:56:02 21:59:25 22° 267° (W) 22:02:44 437.485
CUBEBUG 2 02 Apr 21:56:52 22:01:00 82° 257° (WSW) 22:05:13 437.445
AISAT 02 Apr 22:00:11 22:03:49 26° 68° (ENE) 22:07:31 437.250
GONETS M04 02 Apr 22:09:25 22:13:21 13° 308° (NW) 22:16:43
COMPASS 1 02 Apr 22:11:30 22:14:32 19° 269° (W) 22:17:29 437.405
UKube-1 02 Apr 22:12:31 22:16:50 74° 75° (ENE) 22:21:10 .
UNISAT 6 02 Apr 22:12:45 22:13:53 11° 87° (E) 22:15:18 437.425
GOMX 1 02 Apr 22:13:53 22:15:12 11° 272° (W) 22:16:16 467.674
CINEMA 3 02 Apr 22:18:09 22:21:40 25° 266° (W) 22:25:06 145.822/145.860
TIGRISAT 02 Apr 22:19:54 22:21:55 13° 88° (E) 22:24:12 435.000
DELFI C3 02 Apr 22:24:12 22:28:02 39° 262° (W) 22:31:54 145.870
DX 1 02 Apr 22:29:16 22:33:37 69° 258° (WSW) 22:37:59 434.975-435.025
Oscar 11 02 Apr 22:41:34 22:44:58 22° 267° (W) 22:48:18 145.826/435.025
ESTCUBE 1 02 Apr 22:45:27 22:49:39 39° 71° (ENE) 22:53:55 437.505/2401.250
NANOSAT C BR1 02 Apr 22:45:36 22:46:34 11° 88° (E) 22:47:48 145.865
ISS 02 Apr 22:46:06 22:49:07 33° 337° (NNW) 22:52:07 145.825
ANTELSAT 02 Apr 22:51:16 22:55:15 28° 95° (E) 22:59:21 437.575/2403.000
POLYITAN 1 02 Apr 22:53:16 22:55:28 14° 90° (E) 22:57:51 437.675
FUNcube-1 02 Apr 23:01:45 23:05:10 24° 267° (W) 23:08:33 145.935
SPROUT 02 Apr 23:06:33 23:09:01 16° 65° (ENE) 23:11:39 437.525
CUBEBUG 1 02 Apr 23:14:29 23:18:51 70° 75° (ENE) 23:23:14 437.445
ZACube-1 02 Apr 23:17:26 23:20:10 17° 270° (W) 23:22:47 437.345
50 SAT 02 Apr 23:17:32 23:21:17 43° 262° (W) 23:25:04 437.505
UWE-3 02 Apr 23:20:52 23:22:47 13° 272° (W) 23:24:31 435.000/436.395/437.385
DUCHIFAT 1 02 Apr 23:25:16 23:28:59 30° 96° (E) 23:32:44 145.980
PCSat 02 Apr 23:25:59 23:31:25 73° 243° (WSW) 23:36:48 145.827
QB50P1 02 Apr 23:26:17 23:30:04 31° 96° (E) 23:33:53 145.935-145.965
HUMSAT D 02 Apr 23:28:34 23:31:55 23° 267° (W) 23:35:13 437.325/437.525
VELOX 1 02 Apr 23:29:17 23:33:25 37° 263° (W) 23:37:32 145.980
AISAT 02 Apr 23:36:23 23:40:21 31° 264° (W) 23:44:15 437.250
QB50P2 02 Apr 23:42:39 23:46:47 49° 99° (E) 23:50:56 145.880/145.840
BUGSAT 1 02 Apr 23:43:30 23:47:10 33° 97° (E) 23:50:52 437.445
UNISAT 6 02 Apr 23:46:39 23:51:18 78° 283° (WNW) 23:55:59 437.425
UKube-1 02 Apr 23:52:54 23:53:36 10° 273° (W) 23:54:01 .
TIGRISAT 02 Apr 23:54:36 23:59:11 67° 286° (WNW) 00:03:49 435.000
YUBILEINY 03 Apr 00:00:06 00:08:29 46° 72° (ENE) 00:16:50 435.215
SWISSCUBE 03 Apr 00:04:45 00:06:21 12° 60° (ENE) 00:08:12 437.505
RS-15 03 Apr 00:05:34 00:14:09 24° 10° (N) 00:23:06 29.354- 29.394
BEESAT 03 Apr 00:07:02 00:08:26 11° 60° (ENE) 00:10:06 436.000
POPSAT HIP 1 03 Apr 00:10:14 00:14:29 83° 281° (WNW) 00:18:44 437.405
TISAT 1 03 Apr 00:11:52 00:16:02 64° 74° (ENE) 00:20:12 437.305
NANOSAT C BR1 03 Apr 00:18:45 00:22:58 67° 286° (WNW) 00:27:11 145.865
ESTCUBE 1 03 Apr 00:23:11 00:26:42 21° 268° (W) 00:30:08 437.505/2401.250
ISS 03 Apr 00:23:58 00:26:12 17° 356° (N) 00:28:25 145.825
POLYITAN 1 03 Apr 00:27:37 00:31:46 52° 287° (WNW) 00:35:54 437.675
ANTELSAT 03 Apr 00:27:57 00:32:02 31° 291° (WNW) 00:36:06 437.575/2403.000
SO-50 03 Apr 00:33:20 00:34:36 11° 28° (NNE) 00:36:03 436.795
SPROUT 03 Apr 00:40:34 00:44:45 51° 261° (W) 00:48:57 437.525
ITUPSAT 1 03 Apr 00:53:56 00:58:07 31° 68° (ENE) 01:02:22 437.325
CUBEBUG 1 03 Apr 00:54:24 00:55:48 11° 273° (W) 00:56:55 437.445
DUCHIFAT 1 03 Apr 01:01:16 01:04:44 24° 292° (WNW) 01:08:07 145.980
QB50P1 03 Apr 01:02:26 01:05:49 23° 292° (WNW) 01:09:09 145.935-145.965
BUGSAT 1 03 Apr 01:19:28 01:22:29 20° 293° (WNW) 01:25:25 437.445
QB50P2 03 Apr 01:19:41 01:22:22 16° 295° (WNW) 01:24:53 145.880/145.840
Oscar 19 03 Apr 01:21:10 01:24:40 19° 90° (E) 01:28:21 437.125/150
SWISSCUBE 03 Apr 01:38:46 01:43:35 88° 259° (W) 01:48:26 437.505
BEESAT 03 Apr 01:40:50 01:45:38 89° 84° (E) 01:50:29 436.000
TISAT 1 03 Apr 01:50:58 01:52:21 11° 272° (W) 01:53:28 437.305
YUBILEINY 03 Apr 01:57:11 02:05:16 41° 273° (W) 02:13:10 435.215
ISS 03 Apr 02:00:43 02:03:24 23° 16° (NNE) 02:06:06 145.825
KKS-1 03 Apr 02:05:54 02:09:46 31° 69° (ENE) 02:13:41 437.445
SO-50 03 Apr 02:11:42 02:16:28 45° 50° (NE) 02:21:13 436.795
Gurwin Techsat 1B 03 Apr 02:16:47 02:19:59 17° 89° (E) 02:23:24 435.225
RS-15 03 Apr 02:19:27 02:30:19 48° 41° (NE) 02:41:45 29.354- 29.394
STARS 03 Apr 02:26:00 02:29:51 32° 69° (ENE) 02:33:46 437.465
ITUPSAT 1 03 Apr 02:31:45 02:36:00 30° 265° (W) 02:40:13 437.325
ITAMSAT 1 03 Apr 02:37:05 02:41:35 30° 95° (E) 02:46:09 435.822/435.867
AIST 1 03 Apr 02:47:01 02:49:18 14° 86° (E) 02:51:46
Oscar 19 03 Apr 02:59:21 03:04:26 55° 288° (WNW) 03:09:29 437.125/150
